Satellite-Ground Cal/Val Region Overpasses Predictions

Prediction of Satellite NPP Overpassing Cal/Val Region: PacNW

Region Location: (Latitude: 10.00, Longitude: 139.50) to (Latitude: 22.70, Longitude: 165.60).

Table of predicted overpasses for the next 14.0 days since TLE Epoch: 1/28/2024
Interval Starting Time Starting Location Ending Time Ending Location
1 01/28/2024 16:02:36 ( 22.67, 144.36) 01/28/2024 16:06:11 ( 10.05, 141.36)
2 01/29/2024 03:11:41 ( 10.01, 151.89) 01/29/2024 03:15:17 ( 22.69, 148.87)
3 01/29/2024 15:43:35 ( 22.65, 149.11) 01/29/2024 15:47:10 ( 10.03, 146.11)
4 01/30/2024 02:52:40 ( 10.04, 156.64) 01/30/2024 02:56:15 ( 22.66, 153.64)
5 01/30/2024 15:24:32 ( 22.69, 153.88) 01/30/2024 15:28:08 ( 10.01, 150.86)
6 01/31/2024 02:33:37 ( 10.00, 161.40) 01/31/2024 02:37:13 ( 22.68, 158.39)
7 01/31/2024 15:05:31 ( 22.66, 158.63) 01/31/2024 15:09:06 ( 10.04, 155.63)
8 02/01/2024 02:15:18 ( 12.50, 165.59) 02/01/2024 02:18:11 ( 22.65, 163.15)
9 02/01/2024 03:56:06 ( 10.04, 140.78) 02/01/2024 03:57:40 ( 15.56, 139.50)
10 02/01/2024 14:46:28 ( 22.69, 163.39) 02/01/2024 14:50:04 ( 10.01, 160.38)
11 02/02/2024 03:37:03 ( 10.01, 145.54) 02/02/2024 03:40:39 ( 22.69, 142.53)
12 02/02/2024 14:30:29 ( 11.98, 165.59) 02/02/2024 14:31:02 ( 10.04, 165.14)
13 02/02/2024 16:08:57 ( 22.65, 142.77) 02/02/2024 16:12:32 ( 10.04, 139.77)
14 02/03/2024 03:18:02 ( 10.04, 150.30) 02/03/2024 03:21:37 ( 22.66, 147.29)
15 02/03/2024 15:49:54 ( 22.68, 147.53) 02/03/2024 15:53:30 ( 10.00, 144.52)
16 02/04/2024 02:58:59 ( 10.01, 155.06) 02/04/2024 03:02:35 ( 22.69, 152.04)
17 02/04/2024 15:30:53 ( 22.65, 152.28) 02/04/2024 15:34:28 ( 10.03, 149.28)
18 02/05/2024 02:39:58 ( 10.05, 159.81) 02/05/2024 02:43:33 ( 22.67, 156.81)
19 02/05/2024 15:11:50 ( 22.68, 157.05) 02/05/2024 15:15:25 ( 10.06, 154.05)
20 02/06/2024 02:20:55 ( 10.02, 164.57) 02/06/2024 02:24:30 ( 22.65, 161.57)
21 02/06/2024 14:52:48 ( 22.70, 161.81) 02/06/2024 14:56:24 ( 10.02, 158.80)
22 02/07/2024 03:43:23 ( 10.01, 143.96) 02/07/2024 03:46:59 ( 22.69, 140.95)
23 02/07/2024 14:34:54 ( 18.73, 165.60) 02/07/2024 14:37:22 ( 10.04, 163.56)
24 02/07/2024 16:15:17 ( 22.65, 141.19) 02/07/2024 16:17:15 ( 15.73, 139.51)
25 02/08/2024 03:24:21 ( 10.05, 148.71) 02/08/2024 03:27:56 ( 22.67, 145.71)
26 02/08/2024 15:56:14 ( 22.67, 145.95) 02/08/2024 15:59:49 ( 10.06, 142.95)
27 02/09/2024 03:05:19 ( 10.03, 153.47) 02/09/2024 03:08:54 ( 22.65, 150.47)
28 02/09/2024 15:37:12 ( 22.69, 150.71) 02/09/2024 15:40:48 ( 10.02, 147.70)
29 02/10/2024 02:46:16 ( 10.01, 158.24) 02/10/2024 02:49:52 ( 22.69, 155.22)
30 02/10/2024 15:18:10 ( 22.65, 155.46) 02/10/2024 15:21:45 ( 10.03, 152.46)
